JZA251 CYYZ-CYXU

Flight info

Callsign JZA251
Flight time 0h 20m
Altitude 12000
Route MIXUT7 DERLO
Aircraft CRJ9/M-SDFGIRWY/S

Departure

Time 2026-05-06 00:54
Airport Toronto Pearson International Airport (CYYZ)

Arrival

Time 2026-05-06 01:14
Airport London International Airport (CYXU)
Time Latitude Longitude Altitude Speed Heading
2026-05-06 00:16 43.68295 -79.61547 570 ft 0 kts 226°
2026-05-06 00:42 43.68307 -79.61530 566 ft 4 kts 226°
2026-05-06 00:42 43.68324 -79.61505 565 ft 0 kts 226°
2026-05-06 00:45 43.68323 -79.61507 566 ft 1 kts 234°
2026-05-06 00:45 43.68322 -79.61513 564 ft 1 kts 266°
2026-05-06 00:45 43.68332 -79.61531 561 ft 5 kts 317°
2026-05-06 00:46 43.68381 -79.61594 562 ft 14 kts 317°
2026-05-06 00:46 43.68438 -79.61700 562 ft 14 kts 274°
2026-05-06 00:46 43.68388 -79.61804 566 ft 14 kts 208°
2026-05-06 00:46 43.68295 -79.61836 563 ft 14 kts 177°
2026-05-06 00:47 43.68199 -79.61816 563 ft 14 kts 172°
2026-05-06 00:47 43.68143 -79.61843 564 ft 8 kts 221°
2026-05-06 00:47 43.68095 -79.61910 563 ft 11 kts 225°
2026-05-06 00:47 43.68026 -79.61983 563 ft 14 kts 197°
2026-05-06 00:48 43.67943 -79.62064 561 ft 15 kts 226°
2026-05-06 00:48 43.67869 -79.62145 564 ft 12 kts 176°
2026-05-06 00:48 43.67804 -79.62086 563 ft 12 kts 136°
2026-05-06 00:48 43.67759 -79.62027 564 ft 14 kts 137°
2026-05-06 00:49 43.67675 -79.61919 564 ft 18 kts 137°
2026-05-06 00:49 43.67582 -79.61797 566 ft 18 kts 136°
2026-05-06 00:49 43.67484 -79.61670 564 ft 21 kts 136°
2026-05-06 00:49 43.67378 -79.61531 563 ft 21 kts 136°
2026-05-06 00:50 43.67269 -79.61388 562 ft 22 kts 136°
2026-05-06 00:50 43.67171 -79.61261 565 ft 14 kts 136°
2026-05-06 00:50 43.67155 -79.61145 564 ft 16 kts 49°
2026-05-06 00:50 43.67236 -79.61026 559 ft 18 kts 47°
2026-05-06 00:51 43.67322 -79.60902 557 ft 18 kts 46°
2026-05-06 00:51 43.67408 -79.60777 556 ft 18 kts 46°
2026-05-06 00:51 43.67492 -79.60656 563 ft 17 kts 46°
2026-05-06 00:51 43.67572 -79.60539 558 ft 17 kts 46°
2026-05-06 00:52 43.67652 -79.60423 560 ft 16 kts 46°
2026-05-06 00:52 43.67732 -79.60307 564 ft 17 kts 47°
2026-05-06 00:52 43.67816 -79.60185 565 ft 18 kts 46°
2026-05-06 00:52 43.67901 -79.60061 561 ft 19 kts 46°
2026-05-06 00:53 43.67976 -79.59938 559 ft 13 kts 77°
2026-05-06 00:53 43.67938 -79.59838 560 ft 12 kts 137°
2026-05-06 00:53 43.67880 -79.59777 561 ft 8 kts 178°
2026-05-06 00:53 43.67833 -79.59831 562 ft 19 kts 226°
2026-05-06 00:54 43.67567 -79.60218 563 ft 93 kts 226°
2026-05-06 00:54 43.66960 -79.61101 566 ft 156 kts 227°
2026-05-06 00:54 43.66156 -79.62251 1115 ft 165 kts 227°
2026-05-06 00:54 43.65334 -79.63358 1967 ft 172 kts 224°
2026-05-06 00:55 43.64322 -79.64472 2413 ft 196 kts 218°
2026-05-06 00:55 43.63222 -79.65726 2997 ft 218 kts 223°
2026-05-06 00:55 43.62050 -79.67213 3711 ft 238 kts 225°
2026-05-06 00:55 43.60797 -79.68814 4576 ft 253 kts 225°
2026-05-06 00:56 43.59481 -79.70454 5595 ft 256 kts 226°
2026-05-06 00:56 43.58167 -79.72061 6734 ft 249 kts 225°
2026-05-06 00:56 43.57000 -79.73729 7749 ft 241 kts 242°
2026-05-06 00:56 43.56320 -79.75802 8804 ft 235 kts 246°
2026-05-06 00:57 43.55605 -79.77829 9768 ft 236 kts 243°
2026-05-06 00:57 43.54807 -79.79838 10420 ft 248 kts 241°
2026-05-06 00:57 43.53884 -79.81957 10797 ft 267 kts 238°
2026-05-06 00:57 43.52843 -79.84165 11270 ft 283 kts 237°
2026-05-06 00:58 43.51718 -79.86488 11710 ft 300 kts 237°
2026-05-06 00:58 43.50530 -79.88975 11921 ft 322 kts 237°
2026-05-06 00:58 43.49267 -79.91630 12010 ft 333 kts 237°
2026-05-06 00:58 43.48006 -79.94272 12049 ft 329 kts 237°
2026-05-06 00:59 43.46752 -79.96900 12063 ft 327 kts 237°
2026-05-06 00:59 43.45507 -79.99516 12057 ft 325 kts 237°
2026-05-06 00:59 43.44269 -80.02115 12062 ft 324 kts 237°
2026-05-06 00:59 43.43031 -80.04700 12052 ft 323 kts 237°
2026-05-06 01:00 43.41797 -80.07282 12039 ft 322 kts 237°
2026-05-06 01:00 43.40569 -80.09855 12029 ft 321 kts 237°
2026-05-06 01:00 43.39281 -80.12355 12013 ft 320 kts 234°
2026-05-06 01:00 43.37914 -80.14765 12021 ft 319 kts 233°
2026-05-06 01:01 43.36548 -80.17166 12038 ft 318 kts 233°
2026-05-06 01:01 43.35195 -80.19577 12020 ft 318 kts 234°
2026-05-06 01:01 43.33855 -80.21996 12014 ft 318 kts 234°
2026-05-06 01:01 43.32536 -80.24364 12010 ft 312 kts 234°
2026-05-06 01:02 43.31241 -80.26688 12001 ft 301 kts 234°
2026-05-06 01:02 43.29989 -80.28937 12000 ft 292 kts 234°
2026-05-06 01:02 43.28768 -80.31127 12006 ft 285 kts 234°
2026-05-06 01:02 43.27568 -80.33276 12005 ft 284 kts 234°
2026-05-06 01:03 43.26356 -80.35441 12011 ft 288 kts 234°
2026-05-06 01:03 43.25131 -80.37635 12019 ft 291 kts 234°
2026-05-06 01:03 43.23890 -80.39856 12017 ft 294 kts 234°
2026-05-06 01:03 43.22637 -80.42090 11993 ft 296 kts 234°
2026-05-06 01:04 43.21376 -80.44342 12035 ft 298 kts 233°
2026-05-06 01:04 43.20127 -80.46577 12049 ft 301 kts 233°
2026-05-06 01:04 43.18846 -80.48858 12050 ft 303 kts 233°
2026-05-06 01:04 43.17553 -80.51157 12057 ft 305 kts 233°
2026-05-06 01:05 43.16248 -80.53482 11802 ft 311 kts 233°
2026-05-06 01:05 43.14949 -80.55783 11457 ft 300 kts 233°
2026-05-06 01:05 43.13698 -80.58008 11117 ft 290 kts 234°
2026-05-06 01:05 43.12484 -80.60165 10791 ft 282 kts 234°
2026-05-06 01:06 43.11300 -80.62269 10451 ft 275 kts 234°
2026-05-06 01:06 43.10137 -80.64323 10110 ft 274 kts 234°
2026-05-06 01:06 43.08959 -80.66407 9770 ft 279 kts 234°
2026-05-06 01:06 43.07767 -80.68522 9395 ft 283 kts 234°
2026-05-06 01:07 43.06560 -80.70652 9012 ft 282 kts 234°
2026-05-06 01:07 43.05368 -80.72763 8622 ft 279 kts 234°
2026-05-06 01:07 43.04189 -80.74844 8252 ft 275 kts 234°
2026-05-06 01:07 43.03025 -80.76901 7878 ft 270 kts 234°
2026-05-06 01:08 43.01900 -80.78881 7516 ft 257 kts 234°
2026-05-06 01:08 43.00833 -80.80758 7184 ft 244 kts 234°
2026-05-06 01:08 42.99829 -80.82525 6868 ft 234 kts 235°
2026-05-06 01:08 42.98843 -80.84259 6565 ft 228 kts 235°
2026-05-06 01:09 42.97869 -80.85975 6270 ft 228 kts 235°
2026-05-06 01:09 42.96915 -80.87648 5956 ft 217 kts 235°
2026-05-06 01:09 42.96006 -80.89240 5781 ft 208 kts 235°
2026-05-06 01:09 42.95113 -80.90768 5559 ft 207 kts 233°
2026-05-06 01:10 42.94145 -80.92292 5314 ft 216 kts 231°
2026-05-06 01:10 42.93145 -80.93812 5037 ft 213 kts 232°
2026-05-06 01:10 42.92164 -80.95304 4742 ft 209 kts 231°
2026-05-06 01:10 42.91286 -80.96858 4405 ft 205 kts 251°
2026-05-06 01:11 42.91260 -80.98701 4092 ft 199 kts 292°
2026-05-06 01:11 42.91853 -81.00507 3839 ft 208 kts 296°
2026-05-06 01:11 42.92579 -81.02185 3616 ft 205 kts 313°
2026-05-06 01:11 42.93645 -81.03469 3388 ft 207 kts 320°
2026-05-06 01:12 42.94743 -81.04701 3109 ft 202 kts 320°
2026-05-06 01:12 42.95822 -81.05902 2845 ft 196 kts 319°
2026-05-06 01:12 42.96792 -81.07023 2661 ft 171 kts 318°
2026-05-06 01:12 42.97650 -81.08044 2452 ft 156 kts 317°
2026-05-06 01:13 42.98435 -81.08992 2274 ft 149 kts 316°
2026-05-06 01:13 42.99201 -81.09945 1991 ft 144 kts 315°
2026-05-06 01:13 42.99949 -81.10867 1716 ft 148 kts 315°
2026-05-06 01:13 43.00730 -81.11811 1488 ft 146 kts 317°
2026-05-06 01:14 43.02288 -81.13675 985 ft 150 kts 320°
2026-05-06 01:14 43.03027 -81.14559 906 ft 120 kts 318°
2026-05-06 01:14 43.03482 -81.15108 908 ft 44 kts 318°
2026-05-06 01:15 43.03586 -81.15250 908 ft 11 kts 278°
2026-05-06 01:15 43.03543 -81.15336 907 ft 12 kts 230°
2026-05-06 01:15 43.03491 -81.15406 907 ft 9 kts 195°
2026-05-06 01:15 43.03440 -81.15375 907 ft 9 kts 139°
2026-05-06 01:16 43.03388 -81.15312 907 ft 11 kts 138°
2026-05-06 01:16 43.03321 -81.15232 907 ft 14 kts 139°
2026-05-06 01:16 43.03243 -81.15138 907 ft 16 kts 138°
2026-05-06 01:16 43.03160 -81.15038 907 ft 16 kts 139°
2026-05-06 01:17 43.03075 -81.14936 907 ft 16 kts 139°
2026-05-06 01:17 43.03001 -81.14847 906 ft 9 kts 139°
2026-05-06 01:17 43.02956 -81.14793 906 ft 9 kts 138°
2026-05-06 01:17 43.02922 -81.14768 907 ft 2 kts 194°
2026-05-06 01:18 43.02912 -81.14784 907 ft 4 kts 250°
2026-05-06 01:18 43.02907 -81.14821 907 ft 1 kts 259°